sat.trackr.live / text

‹ back to catalog

ASIASTAR

NORAD 26107 · 2000-016A

PAYLOAD ACTIVE UNKNOWN

§ Identity

Operator
Country
US
Launch date
2000-03-21
Launch site
FRGUI
Launch vehicle
Mass (kg)
RCS (m²)
25.12

Purposes: comms

External: N2YO · Heavens-Above · Gunter

§ Orbital elements

Epoch: 2026-05-24T17:58:27.456096Z

Period
1,436.06 min
Inclination
9.0789°
Eccentricity
0.0004980
Mean motion
1.00274392 rev/d
Perigee alt
35,764.9 km
Apogee alt
35,806.9 km
Semi-major
42,164.0 km
B*
0.0000e+0
RAAN
58.4055°
Arg perigee
2.9188°
Mean anomaly
195.6369°
Rev number
9,568

§ Raw data

ASIASTAR1 26107U 00016A   26144.74892889 -.00000338  00000+0  00000+0 0  99982 26107   9.0789  58.4055 0004980   2.9188 195.6369  1.00274392 95682

JSON: /api/v1/satellites/26107 · /tle

For live sub-satellite position, see the globe view (requires WebGL).

§ Visibility from observer

Set your observer location to see the next 7 days of passes ≥ 10°. The values pass through the URL so the page stays shareable.

No JS? Fill the form by hand. The geolocation button needs JavaScript.